Latest Weather Observations for Tibooburra Airport

IDN60801

Issued at 3:05 pm EST Friday 25 April 2014 (issued every 30 minutes, with the page automatically refreshed every 10 minutes)

About weather observations | Map of weather stations | Latest weather observations for NSW | Other Formats
Station Details ID: 046126 Name: TIBOOBURRA AIRPORT Lat: -29.44 Lon: 142.06 Height: 176.4 m
Data from the previous 72 hours. | See also: Recent months for locations in New South Wales
Date/Time
EST
Temp
°C
App
Temp
°C
Dew
Point
Rel
Hum
%
Delta-T
°C
Wind Press
QNH
hPa
Press
MSL
hPa
Rain
since 9 am
mm
Dir
 
Spd
km/h
Gust
km/h
Spd
kts
Gust
kts
25/03:00pm 30.3 27.5 3.4 18 13.8 N 7 19 4 10 1012.8 1012.2 0.0
25/02:30pm 29.8 27.0 2.9 18 13.6 NE 7 19 4 10 1013.0 - 0.0
25/02:00pm 29.2 26.0 3.2 19 13.2 NNE 9 17 5 9 1013.4 1012.8 0.0
25/01:30pm 28.3 25.6 3.9 21 12.4 ESE 7 15 4 8 1013.8 - 0.0
25/01:00pm 28.2 25.4 5.1 23 12.0 ENE 9 13 5 7 1014.3 1013.7 0.0
25/12:30pm 27.0 24.5 4.7 24 11.4 NE 7 13 4 7 1014.9 - 0.0
25/12:00pm 26.5 23.8 5.5 26 10.9 E 9 15 5 8 1015.5 1014.9 0.0
25/11:30am 25.1 21.9 5.3 28 10.1 ENE 11 17 6 9 1016.0 - 0.0
25/11:00am 24.8 21.9 6.5 31 9.5 E 11 17 6 9 1016.7 1016.0 0.0
25/10:30am 23.2 19.8 6.0 33 8.8 ESE 13 19 7 10 1017.1 - 0.0
25/10:00am 22.4 18.6 5.8 34 8.4 ESE 15 19 8 10 1017.5 1016.9 0.0
25/09:30am 21.3 17.4 5.2 35 8.0 SE 15 20 8 11 1017.6 - 0.0
25/09:00am 19.9 15.4 4.4 36 7.5 SE 17 20 9 11 1017.7 1017.1 0.0
25/08:30am 17.9 14.1 3.8 39 6.7 S 13 17 7 9 1017.6 - 0.0
25/08:00am 15.7 12.8 4.4 47 5.3 SSW 9 11 5 6 1017.1 1016.5 0.0
25/07:30am 13.9 10.2 4.5 53 4.4 WSW 13 13 7 7 1016.9 - 0.0
25/07:00am 13.2 9.1 4.6 56 4.0 WSW 15 17 8 9 1016.6 1015.9 0.0
25/06:30am 13.4 9.7 4.6 55 4.1 WSW 13 13 7 7 1016.1 - 0.0
25/06:00am 13.8 9.7 4.4 53 4.4 WSW 15 15 8 8 1015.6 1015.0 0.0
25/05:30am 14.1 10.7 3.8 50 4.7 SSW 11 13 6 7 1015.3 - 0.0
25/05:00am 14.9 10.7 4.0 48 5.1 SSW 15 17 8 9 1015.0 1014.4 0.0
25/04:30am 15.9 12.4 3.4 43 5.8 S 11 15 6 8 1015.1 - 0.0
25/04:00am 16.5 12.7 3.9 43 5.9 S 13 15 7 8 1015.0 1014.4 0.0
25/03:30am 16.9 13.2 4.6 44 5.9 SSE 13 17 7 9 1015.0 - 0.0
25/03:00am 17.3 13.7 4.9 44 6.0 SSE 13 17 7 9 1015.2 1014.6 0.0
25/02:30am 17.8 13.8 5.1 43 6.2 SSE 15 19 8 10 1015.4 - 0.0
25/02:00am 17.9 14.0 5.5 44 6.1 SSE 15 20 8 11 1015.7 1015.1 0.0
25/01:30am 18.5 14.2 5.4 42 6.4 SSE 17 22 9 12 1016.1 - 0.0
25/01:00am 18.9 14.6 5.4 41 6.6 SSE 17 24 9 13 1016.3 1015.6 0.0
25/12:30am 19.2 14.6 5.6 41 6.7 SSE 19 30 10 16 1016.1 - 0.0
25/12:00am 19.6 15.0 5.6 40 6.9 SSE 19 24 10 13 1016.3 1015.6 0.0
 
Date/Time
EST
Temp
°C
App
Temp
°C
Dew
Point
Rel
Hum
%
Delta-T
°C
Wind Press
QNH
hPa
Press
MSL
hPa
Rain
since 9 am
mm
Dir
 
Spd
km/h
Gust
km/h
Spd
kts
Gust
kts
24/11:30pm 19.8 15.0 5.8 40 7.0 SSE 20 28 11 15 1016.3 - 0.0
24/11:00pm 20.2 15.1 5.8 39 7.2 SSE 22 28 12 15 1016.4 1015.7 0.0
24/10:30pm 20.6 16.0 5.8 38 7.4 SSE 19 22 10 12 1016.5 - 0.0
24/10:00pm 21.1 16.4 5.9 37 7.7 SSE 20 28 11 15 1016.5 1015.8 0.0
24/09:30pm 21.4 16.7 6.1 37 7.8 SSE 20 24 11 13 1016.3 - 0.0
24/09:00pm 21.9 17.3 6.6 37 7.9 SSE 20 28 11 15 1015.9 1015.3 0.0
24/08:30pm 22.5 18.0 7.1 37 8.0 SSE 20 28 11 15 1015.6 - 0.0
24/08:00pm 23.1 18.8 7.2 36 8.3 SSE 19 28 10 15 1015.3 1014.7 0.0
24/07:30pm 23.7 19.2 6.9 34 8.8 SSE 20 26 11 14 1014.8 - 0.0
24/07:00pm 24.3 19.8 7.0 33 9.1 SSE 20 26 11 14 1014.4 1013.8 0.0
24/06:30pm 25.0 20.2 7.2 32 9.4 SSE 22 30 12 16 1013.9 - 0.0
24/06:00pm 26.0 21.1 7.1 30 10.0 SSE 22 28 12 15 1013.5 1012.9 0.0
24/05:30pm 27.0 22.6 6.4 27 10.9 SSE 19 26 10 14 1013.3 - 0.0
24/05:00pm 28.0 23.9 6.2 25 11.5 SSE 17 24 9 13 1013.1 1012.5 0.0
24/04:30pm 28.6 24.5 6.1 24 11.9 S 17 20 9 11 1013.0 - 0.0
24/04:00pm 28.7 24.6 6.1 24 12.0 SSE 17 24 9 13 1013.0 1012.4 0.0
24/03:30pm 29.1 26.1 5.9 23 12.3 SE 11 26 6 14 1013.0 - 0.0
24/03:00pm 28.6 24.7 5.5 23 12.1 SE 15 24 8 13 1013.1 1012.5 0.0
24/02:30pm 28.4 25.0 5.9 24 11.9 S 13 22 7 12 1013.3 - 0.0
24/02:00pm 28.4 25.1 6.5 25 11.7 S 13 20 7 11 1013.5 1012.9 0.0
24/01:30pm 28.3 24.4 7.0 26 11.4 SSW 17 26 9 14 1013.8 - 0.0
24/01:00pm 28.1 24.8 6.2 25 11.6 S 13 22 7 12 1014.3 1013.7 0.0
24/12:30pm 27.7 24.7 5.9 25 11.5 SSE 11 19 6 10 1014.6 - 0.0
24/12:00pm 27.3 24.1 6.7 27 10.9 SSE 13 19 7 10 1015.0 1014.4 0.0
24/11:30am 26.4 23.5 6.4 28 10.5 SSW 11 19 6 10 1015.3 - 0.0
24/11:00am 25.4 22.5 6.6 30 9.9 SSW 11 17 6 9 1015.6 1015.0 0.0
24/10:30am 24.2 21.4 6.9 33 9.1 SSW 11 15 6 8 1015.8 - 0.0
24/10:00am 22.5 19.6 6.7 36 8.2 WSW 11 13 6 7 1016.0 1015.4 0.0
24/09:30am 21.4 17.7 6.5 38 7.6 SW 15 19 8 10 1015.9 - 0.0
24/09:00am 21.1 17.9 7.0 40 7.3 SW 13 15 7 8 1015.7 1015.1 0.0
24/08:30am 20.2 16.9 6.5 41 6.9 SW 13 15 7 8 1015.3 - 0.0
24/08:00am 18.9 16.0 6.4 44 6.3 W 11 13 6 7 1014.8 1014.2 0.0
24/07:30am 16.9 13.9 6.1 49 5.3 W 11 13 6 7 1014.4 - 0.0
24/07:00am 16.3 13.3 5.9 50 5.1 W 11 13 6 7 1014.2 1013.6 0.0
24/06:30am 16.6 14.0 5.9 49 5.2 WSW 9 9 5 5 1014.0 - 0.0
24/06:00am 16.5 13.5 5.8 49 5.2 W 11 13 6 7 1013.8 1013.2 0.0
24/05:30am 16.5 13.1 5.8 49 5.2 W 13 15 7 8 1013.7 - 0.0
24/05:00am 16.7 13.2 5.6 48 5.4 W 13 17 7 9 1013.4 1012.8 0.0
24/04:30am 16.7 13.2 5.6 48 5.4 W 13 15 7 8 1013.3 - 0.0
24/04:00am 16.6 13.5 5.6 48 5.3 WSW 11 13 6 7 1013.4 1012.8 0.0
24/03:30am 17.0 14.0 5.9 48 5.4 WSW 11 13 6 7 1013.5 - 0.0
24/03:00am 17.4 14.0 5.7 46 5.7 WSW 13 13 7 7 1013.6 1013.0 0.0
24/02:30am 17.6 14.5 5.5 45 5.9 W 11 11 6 6 1013.6 - 0.0
24/02:00am 17.8 14.7 5.7 45 5.9 W 11 13 6 7 1013.7 1013.1 0.0
24/01:30am 18.1 15.0 5.7 44 6.1 W 11 13 6 7 1013.8 - 0.0
24/01:00am 18.2 15.1 5.4 43 6.3 WSW 11 11 6 6 1014.0 1013.4 0.0
24/12:30am 18.8 16.1 5.6 42 6.5 WSW 9 9 5 5 1014.4 - 0.0
24/12:00am 19.0 15.9 5.5 41 6.7 WSW 11 13 6 7 1014.5 1013.9 0.0
 
Date/Time
EST
Temp
°C
App
Temp
°C
Dew
Point
Rel
Hum
%
Delta-T
°C
Wind Press
QNH
hPa
Press
MSL
hPa
Rain
since 9 am
mm
Dir
 
Spd
km/h
Gust
km/h
Spd
kts
Gust
kts
23/11:30pm 19.4 15.9 5.5 40 6.9 WSW 13 15 7 8 1014.8 - 0.0
23/11:00pm 20.1 16.6 5.4 38 7.3 WSW 13 17 7 9 1014.9 1014.3 0.0
23/10:30pm 21.0 17.1 5.4 36 7.8 SW 15 17 8 9 1014.8 - 0.0
23/10:00pm 21.4 17.4 4.9 34 8.2 SW 15 17 8 9 1014.5 1013.9 0.0
23/09:30pm 21.8 17.7 4.4 32 8.6 WSW 15 17 8 9 1014.3 - 0.0
23/09:00pm 22.7 18.5 3.8 29 9.3 SW 15 17 8 9 1014.1 1013.5 0.0
23/08:30pm 23.6 19.5 2.4 25 10.2 WSW 13 15 7 8 1013.8 - 0.0
23/08:00pm 24.6 21.2 2.1 23 10.8 WSW 9 11 5 6 1013.4 1012.8 0.0
23/07:30pm 25.5 22.1 1.6 21 11.5 WSW 9 9 5 5 1013.2 - 0.0
23/07:00pm 26.6 23.2 1.8 20 12.0 WSW 9 11 5 6 1012.9 1012.3 0.0
23/06:30pm 27.6 23.8 1.9 19 12.6 W 11 15 6 8 1012.7 - 0.0
23/06:00pm 29.7 25.8 1.2 16 14.0 W 11 15 6 8 1012.5 1011.9 0.0
23/05:30pm 31.3 28.2 1.6 15 14.8 W 7 13 4 7 1012.3 - 0.0
23/05:00pm 31.9 28.9 2.1 15 15.1 WSW 7 17 4 9 1012.4 1011.8 0.0
23/04:30pm 32.1 29.3 2.2 15 15.1 W 6 15 3 8 1012.5 - 0.0
23/04:00pm 32.2 27.0 2.3 15 15.2 NW 19 24 10 13 1012.6 1012.0 0.0
23/03:30pm 32.3 27.1 2.4 15 15.2 WNW 19 24 10 13 1012.8 - 0.0
23/03:00pm 31.7 27.3 2.8 16 14.8 WNW 15 24 8 13 1013.1 1012.5 0.0
23/02:30pm 31.8 28.6 2.9 16 14.8 WNW 9 19 5 10 1013.3 - 0.0
23/02:00pm 32.0 28.4 3.1 16 14.9 N 11 26 6 14 1013.6 1013.0 0.0
23/01:30pm 30.9 26.6 3.0 17 14.2 N 15 26 8 14 1014.1 - 0.0
23/01:00pm 31.1 26.4 3.2 17 14.3 N 17 24 9 13 1014.6 1014.0 0.0
23/12:30pm 30.2 24.8 2.5 17 13.9 NE 20 30 11 16 1015.1 - 0.0
23/12:00pm 29.4 23.5 1.8 17 13.6 NNE 22 35 12 19 1015.6 1015.0 0.0
23/11:30am 29.2 23.3 1.7 17 13.6 NNE 22 30 12 16 1016.1 - 0.0
23/11:00am 27.5 21.1 1.1 18 12.7 NNE 24 32 13 17 1016.6 1015.9 0.0
23/10:30am 26.5 20.2 1.7 20 12.0 NNE 24 35 13 19 1016.8 - 0.0
23/10:00am 25.5 18.8 1.6 21 11.4 NNE 26 33 14 18 1017.0 1016.4 0.0
23/09:30am 24.1 17.4 1.7 23 10.7 NNE 26 33 14 18 1017.0 - 0.0
23/09:00am 22.2 16.7 1.8 26 9.6 NE 20 28 11 15 1017.0 1016.4 0.0
23/08:30am 20.2 15.2 1.1 28 8.7 NNE 17 22 9 12 1016.8 - 0.0
23/08:00am 18.9 13.5 1.0 30 8.1 N 19 22 10 12 1016.5 1015.8 0.0
23/07:30am 17.6 12.9 1.2 33 7.3 N 15 17 8 9 1016.3 - 0.0
23/07:00am 16.8 12.5 0.9 34 7.0 N 13 15 7 8 1016.1 1015.5 0.0
23/06:30am 16.8 12.2 1.3 35 6.9 N 15 17 8 9 1016.0 - 0.0
23/06:00am 16.8 12.5 1.3 35 6.9 NNE 13 17 7 9 1015.9 1015.3 0.0
23/05:30am 17.1 12.4 1.1 34 7.1 NNE 15 17 8 9 1015.9 - 0.0
23/05:00am 16.9 13.0 1.4 35 6.9 NE 11 13 6 7 1015.9 1015.3 0.0
23/04:30am 17.0 13.1 1.4 35 7.0 NE 11 13 6 7 1015.8 - 0.0
23/04:00am 17.1 13.2 1.1 34 7.1 NE 11 13 6 7 1015.7 1015.1 0.0
23/03:30am 17.7 13.9 1.7 34 7.2 NE 11 11 6 6 1015.7 - 0.0
23/03:00am 17.7 14.8 2.5 36 7.0 E 7 7 4 4 1015.7 1015.1 0.0
23/02:30am 17.8 15.1 2.5 36 7.0 E 6 7 3 4 1015.9 - 0.0
23/02:00am 17.8 14.9 1.7 34 7.3 SE 6 9 3 5 1016.1 1015.5 0.0
23/01:30am 18.3 15.0 2.2 34 7.4 ESE 9 9 5 5 1016.5 - 0.0
23/01:00am 18.6 15.2 2.0 33 7.6 ESE 9 9 5 5 1016.6 1015.9 0.0
23/12:30am 19.5 18.0 2.8 33 7.8 CALM 0 0 0 0 1016.7 - 0.0
23/12:00am 19.2 17.6 2.6 33 7.7 CALM 0 4 0 2 1016.8 1016.2 0.0
 
Date/Time
EST
Temp
°C
App
Temp
°C
Dew
Point
Rel
Hum
%
Delta-T
°C
Wind Press
QNH
hPa
Press
MSL
hPa
Rain
since 9 am
mm
Dir
 
Spd
km/h
Gust
km/h
Spd
kts
Gust
kts
22/11:30pm 19.5 16.8 2.4 32 8.0 SE 6 9 3 5 1016.8 - 0.0
22/11:00pm 19.6 16.3 2.5 32 8.0 ESE 9 9 5 5 1016.8 1016.2 0.0
22/10:30pm 20.3 17.6 2.6 31 8.3 SE 6 6 3 3 1016.9 - 0.0
22/10:00pm 20.9 17.6 2.7 30 8.6 ESE 9 11 5 6 1016.9 1016.3 0.0
22/09:30pm 20.5 17.4 1.4 28 8.8 SE 7 9 4 5 1017.0 - 0.0
22/09:00pm 21.3 17.9 1.6 27 9.1 ESE 9 11 5 6 1016.8 1016.2 0.0
22/08:30pm 22.0 17.9 2.2 27 9.4 ESE 13 15 7 8 1016.5 - 0.0
22/08:00pm 22.9 19.6 2.4 26 9.8 ESE 9 11 5 6 1016.3 1015.6 0.0
22/07:30pm 23.7 19.9 2.0 24 10.4 ESE 11 13 6 7 1016.0 - 0.0
22/07:00pm 24.9 22.0 2.4 23 10.9 ESE 7 9 4 5 1015.9 1015.3 0.0
22/06:30pm 25.9 23.0 2.6 22 11.4 SE 7 9 4 5 1015.6 - 0.0
22/06:00pm 27.1 24.3 2.9 21 12.0 ESE 7 9 4 5 1015.4 1014.8 0.0
22/05:30pm 28.3 25.4 2.5 19 12.8 SE 7 17 4 9 1015.4 - 0.0
22/05:00pm 29.4 27.8 2.6 18 13.4 CALM 0 0 0 0 1015.4 1014.8 0.0
22/04:30pm 29.3 26.4 2.5 18 13.4 W 7 11 4 6 1015.4 - 0.0
22/04:00pm 29.2 26.0 3.2 19 13.1 W 9 15 5 8 1015.3 1014.7 0.0
22/03:30pm 29.3 25.8 3.3 19 13.2 S 11 17 6 9 1015.5 - 0.0

Other Formats:

Comma delimited format used in spreadsheet applications
http://www.bom.gov.au/fwo/IDN60801/IDN60801.95485.axf

JavaScript Object Notation format (JSON) in row-major order
http://www.bom.gov.au/fwo/IDN60801/IDN60801.95485.json